Weather Roundup
Issued by NWS

Home | Current Version | Previous Version | Text Only | Print | Product List | Glossary On
Versions: 1 2 3 4 5 6 7 8 9 10 11 12 13 14 15 16 17 18 19 20 21 22 23 24 25 26 27 28 29 30 31 32 33 34 35 36 37 38 39 40 41 42 43 44 45 46 47 48 49 50
000
NZUS93 KARX 242110
HRRWXR

CURRENT HOURLY OBSERVATIONS ACROSS
MUCH OF THE UPPER MISSISSIPPI VALLEY
NATIONAL WEATHER SERVICE LA CROSSE WI
300 PM CST TUE JAN 24 2017


...SOUTHEAST MINNESOTA...


CITY           SKY/WX    TMP DP  RH WIND       PRES   REMARKS
ROCHESTER      CLOUDY    29  27  92 E5        29.78S WCI  24
ROCHESTER/MAYO CLOUDY    31  28  90 NE5       29.80R WCI  26
WINONA         CLOUDY    34  30  86 SE5       29.82S WCI  30
AUSTIN         CLOUDY    30  27  86 E7        29.77F WCI  23
ALBERT LEA     CLOUDY    30  28  93 E8        29.77F FOG     WCI  23
DODGE CENTER   CLOUDY    30  27  86 MISG      29.78S
PRESTON        CLOUDY    32  27  84 E5        29.78F WCI  27
OWATONNA       CLOUDY    30  27  86 E6        29.79S WCI  24
FARIBAULT      NOT AVBL
$$

...ELSEWHERE IN MINNESOTA...


CITY           SKY/WX    TMP DP  RH WIND       PRES   REMARKS
MINNEAPOLIS    CLOUDY    32  26  78 E9        29.81F WCI  24
INTNL FALLS    CLOUDY    27  21  78 W8        29.83R WCI  19
DULUTH         CLOUDY    31  25  78 NE7       29.81R WCI  24
RED WING       CLOUDY    36  27  69 E7        29.80S WCI  30
REDWOOD FALLS  CLOUDY    31  25  78 E9        29.78F WCI  23
MANKATO        CLOUDY    31  28  89 E9        29.80S FOG     WCI  23
WORTHINGTON    CLOUDY    29  28  96 E16       29.70F WCI  17
FAIRMONT       CLOUDY    31  28  89 E13       29.74F WCI  21
$$

...SOUTHWEST WISCONSIN...


CITY           SKY/WX    TMP DP  RH WIND       PRES   REMARKS
LA CROSSE      CLOUDY    38  30  73 E5        29.81S WCI  34
PRAIRIE DU CHI CLOUDY    35  30  83 SE8       29.81R WCI  28
BOSCOBEL       CLOUDY    38  31  76 CALM      29.82S
LONE ROCK      CLOUDY    37  31  78 E6        29.82S WCI  32
PLATTEVILLE    CLOUDY    35  34  96 SE6       29.81S WCI  30
FORT MC COY    CLOUDY    35  32  88 E5        29.82S WCI  31
CAMP DOUGLAS   CLOUDY    36  30  80 SE3       29.80F
MAUSTON-NEW LI CLOUDY    36  31  81 CALM      29.80S HAZE
VIROQUA        CLOUDY    34  32  93 SE5       29.78F WCI  30
WIS DELLS      CLOUDY    35  31  83 CALM      29.81R
$$

...ELSEWHERE IN WISCONSIN...


CITY           SKY/WX    TMP DP  RH WIND       PRES   REMARKS
MILWAUKEE      CLOUDY    39  32  76 NW3       29.83S
MADISON        CLOUDY    37  31  78 CALM      29.82S
GREEN BAY      CLOUDY    42  35  76 W7        29.81S
EAU CLAIRE     CLOUDY    34  28  79 E5        29.81S WCI  30
BLACK RVR FLS  CLOUDY    35  32  90 CALM      29.81S
MEDFORD        CLOUDY    32  28  86 CALM      29.78F
WAUSAU         CLOUDY    35  29  78 CALM      29.78S
WIS RAPIDS     CLOUDY    36  30  79 NE3       29.82S
MARSHFIELD     CLOUDY    34  28  79 CALM      29.79S
RICE LAKE      CLOUDY    33  28  82 N3        29.82F
$$

...NORTHEAST IOWA...


CITY           SKY/WX    TMP DP  RH WIND       PRES   REMARKS
WATERLOO       LGT SNOW  32  29  88 E12       29.76F FOG     WCI  23
DUBUQUE        CLOUDY    33  30  88 SE7       29.78F WCI  27
DECORAH        CLOUDY    32  30  93 SE3       29.77S
MASON CITY     CLOUDY    31  28  89 E10       29.75F WCI  22
CHARLES CITY   CLOUDY    32  32 100 SE8       29.76F WCI  25
OELWEIN        CLOUDY    32  32 100 SE12      29.77F FOG     WCI  23
$$

...ELSEWHERE IN IOWA...


CITY           SKY/WX    TMP DP  RH WIND       PRES   REMARKS
DES MOINES     CLOUDY    33  30  88 E10G21    29.63F WCI  25
IOWA CITY      CLOUDY    36  31  82 E12       29.76F WCI  28
FORT DODGE     CLOUDY    30  27  86 E17       29.68F WCI  18
MARSHALLTOWN   CLOUDY    31  30  96 E21       29.67F FOG     WCI  18
CEDAR RAPIDS   CLOUDY    32  30  92 E8        29.74F FOG     WCI  25
$$

...NORTHERN ILLINOIS...


CITY           SKY/WX    TMP DP  RH WIND       PRES   REMARKS
CHICAGO-OHARE  CLOUDY    36  31  82 S5        29.85R WCI  32
CHICAGO-MIDWAY CLOUDY    38  31  76 CALM      29.85R
MOLINE         CLOUDY    37  32  82 SE9       29.79F WCI  30
ROCKFORD       CLOUDY    36  31  82 SE5       29.84S WCI  32
PEORIA         CLOUDY    39  33  79 SE7       29.81F WCI  34
$$

NOTE: "FAIR" INDICATES FEW OR NO CLOUDS BELOW 12,000 FEET WITH NO
SIGNIFICANT WEATHER AND/OR OBSTRUCTIONS TO VISIBILITY. WIND
SPEEDS ARE IN MILES-PER-HOUR.




USA.gov is the U.S. government's official web portal to all federal, state and local government web resources and services.